[[{"header":{"parameterUnit":"m.s-1","parameterCategory":1,"la1":30.2992,"la2":30.254,"lo1":-89.0895,"lo2":-89.0443,"dy":0.0025,"dx":0.0025,"nx":19,"ny":19,"refTime":"2026-03-25T03:00:00:Z","depth":0,"parameterNumber":2,"parameterNumberName":"U-component_of_WINDS"},"data":[0,0,0,-1.1103,-1.1104,-1.1146,-1.1146,-1.1204,-1.1205,0,0,0,0,0,0,0,0,0,0,0,-1.1092,-1.1092,-1.1103,-1.1104,-1.1146,-1.1146,-1.1204,-1.1205,0,0,0,0,0,0,0,0,0,0,0,-1.1091,-1.1092,-1.1093,-1.1104,-1.1146,-1.1146,-1.1204,-1.1171,0,0,0,0,0,0,0,0,0,0,-1.1129,-1.112,-1.1092,-1.1093,-1.1104,-1.1146,-1.1146,-1.1169,-1.1173,-1.1186,0,-1.1197,0,-1.1202,-1.1209,-1.1209,0,0,0,-1.1103,-1.1117,-1.1127,-1.1093,-1.1105,-1.1146,-1.1127,-1.1171,-1.1176,-1.1191,-1.1198,-1.12,-1.1203,-1.1209,-1.1209,-1.1286,-1.1286,0,0,-1.1101,-1.11,-1.1124,-1.113,-1.1122,-1.1126,-1.1128,-1.1174,-1.1182,-1.1198,-1.1202,-1.1204,-1.1209,-1.121,-1.1286,-1.1286,0,0,0,-1.1095,-1.1099,-1.1108,-1.1127,-1.1135,-1.1127,-1.113,-1.118,-1.1183,-1.1202,-1.1205,-1.121,-1.1211,-1.1285,-1.1286,-1.1304,0,0,0,-1.1093,-1.1095,-1.1107,-1.1107,-1.1134,-1.1158,-1.1135,-1.118,-1.1185,-1.1204,-1.121,-1.1211,-1.1285,-1.1285,-1.1302,-1.1313,0,0,0,-1.1089,-1.1094,-1.1101,-1.1106,-1.1124,-1.1157,-1.1162,-1.1181,-1.1186,-1.1209,-1.1211,-1.1284,-1.1285,-1.1301,-1.1311,-1.1333,0,0,0,-1.1083,-1.1117,-1.1101,-1.1139,-1.1124,-1.1167,-1.1162,-1.1195,-1.1216,-1.121,-1.1285,-1.1286,-1.1301,-1.1309,-1.1332,-1.1352,-1.136,0,0,-1.1125,-1.1122,-1.1144,-1.1131,-1.1177,-1.1161,-1.121,-1.1231,-1.1234,-1.1269,-1.1271,-1.1303,-1.1311,-1.1333,-1.1405,-1.1411,0,0,0,-1.1157,-1.1173,-1.1185,-1.1205,-1.1222,-1.1237,-1.125,-1.1258,-1.1287,-1.1251,-1.1317,-1.1321,-1.1334,-1.1344,-1.135,-1.1361,-1.129,-1.129,-1.129,-1.1215,-1.1217,-1.1254,-1.1261,-1.1281,-1.1294,-1.1311,-1.1324,-1.132,-1.1336,-1.1346,-1.139,-1.1401,-1.1405,-1.1417,-1.1357,-1.1357,-1.1357,-1.1357,-1.1276,-1.1299,-1.1294,-1.1328,-1.133,-1.1359,-1.1374,-1.1371,-1.1399,-1.1382,-1.1394,-1.1376,-1.1412,-1.1423,-1.1358,-1.1358,-1.1358,-1.1358,-1.1358,-1.1314,-1.1326,-1.1334,-1.1364,-1.1386,-1.1393,-1.142,-1.1421,-1.1423,-1.1434,-1.1445,-1.1445,-1.1445,-1.1439,-1.1439,-1.1439,-1.144,-1.144,-1.144,-1.1351,-1.136,-1.1382,-1.1402,-1.1415,-1.1433,-1.1447,-1.146,-1.1476,-1.1475,-1.1475,-1.147,-1.1415,-1.1401,-1.1442,-1.1442,-1.1441,-1.1441,-1.1441,-1.1413,-1.1399,-1.1433,-1.1447,-1.147,-1.1493,-1.1494,-1.1521,-1.1533,-1.1546,-1.154,-1.1498,-1.1495,-1.1491,-1.148,-1.1538,-1.1538,-1.1538,-1.1538,-1.1446,-1.1444,-1.1479,-1.15,-1.1521,-1.1526,-1.1566,-1.1577,-1.1587,-1.1595,-1.1586,-1.1571,-1.1567,-1.1566,-1.1561,-1.155,-1.1625,-1.1625,-1.1626,-1.1484,-1.1485,-1.1518,-1.1526,-1.1545,-1.1562,-1.1599,-1.1625,-1.1633,-1.1629,-1.1601,-1.1597,-1.1573,-1.1565,-1.156,-1.1551,-1.1531,0,0]},{"header":{"parameterUnit":"m.s-1","parameterCategory":1,"la1":30.2992,"la2":30.254,"lo1":-89.0895,"lo2":-89.0443,"dy":0.0025,"dx":0.0025,"nx":19,"ny":19,"refTime":"2026-03-25T03:00:00:Z","depth":0,"parameterNumber":3,"parameterNumberName":"V-component_of_WINDS"},"data":[0,0,0,1.0522,1.0521,1.0491,1.049,1.0462,1.0461,0,0,0,0,0,0,0,0,0,0,0,1.0538,1.0538,1.0522,1.0521,1.0491,1.049,1.0462,1.0461,0,0,0,0,0,0,0,0,0,0,0,1.0538,1.0538,1.0538,1.0521,1.0491,1.049,1.0462,1.0481,0,0,0,0,0,0,0,0,0,0,1.0509,1.0531,1.0538,1.0538,1.0521,1.0491,1.049,1.0482,1.048,1.048,0,1.0483,0,1.0472,1.046,1.046,0,0,0,1.0516,1.0532,1.0518,1.0538,1.0521,1.0491,1.0503,1.048,1.0478,1.0478,1.0483,1.0481,1.0472,1.046,1.046,1.0485,1.0486,0,0,1.0517,1.0536,1.052,1.0517,1.0523,1.0504,1.0502,1.0479,1.0485,1.0483,1.0481,1.0471,1.046,1.046,1.0485,1.0486,0,0,0,1.0526,1.0537,1.0523,1.0518,1.0512,1.0503,1.0501,1.0486,1.048,1.048,1.0471,1.046,1.046,1.0485,1.0485,1.0523,0,0,0,1.0527,1.0542,1.0524,1.0535,1.0513,1.0499,1.0509,1.0482,1.0479,1.0471,1.046,1.046,1.0484,1.0485,1.0521,1.0538,0,0,0,1.0537,1.0543,1.0542,1.0536,1.0524,1.0499,1.0491,1.0481,1.0473,1.046,1.046,1.0484,1.0485,1.0519,1.0534,1.0551,0,0,0,1.0554,1.0574,1.0542,1.0561,1.0524,1.0523,1.0491,1.0489,1.0482,1.046,1.0484,1.0485,1.0519,1.0533,1.0549,1.0568,1.0577,0,0,1.0589,1.0579,1.0589,1.056,1.0569,1.0526,1.054,1.0516,1.0497,1.049,1.0491,1.0522,1.0534,1.055,1.0624,1.0632,0,0,0,1.0606,1.0614,1.0612,1.0608,1.0591,1.0578,1.055,1.0541,1.0535,1.0498,1.0531,1.0538,1.0546,1.0555,1.0561,1.0568,1.049,1.049,1.0489,1.0683,1.0659,1.0674,1.0648,1.0644,1.0616,1.061,1.0594,1.0569,1.0578,1.0576,1.0623,1.0634,1.0638,1.0646,1.0583,1.0583,1.0584,1.0584,1.0733,1.074,1.071,1.0714,1.0689,1.0692,1.0666,1.0649,1.0648,1.0622,1.0629,1.0603,1.0648,1.0653,1.0586,1.0586,1.0585,1.0585,1.0585,1.0781,1.078,1.0771,1.0763,1.076,1.0732,1.0733,1.071,1.0687,1.0694,1.069,1.0689,1.0686,1.0694,1.0694,1.0694,1.0694,1.0694,1.0694,1.0834,1.0822,1.0826,1.0812,1.0807,1.0797,1.0771,1.0765,1.0753,1.0736,1.0735,1.0712,1.0656,1.0644,1.0697,1.0696,1.0696,1.0696,1.0696,1.0894,1.0878,1.0884,1.088,1.0862,1.0861,1.0832,1.0823,1.0815,1.0816,1.0791,1.0754,1.0741,1.0736,1.0725,1.0796,1.0796,1.0796,1.0796,1.0935,1.0927,1.0929,1.0924,1.0916,1.0891,1.09,1.088,1.0856,1.085,1.0837,1.082,1.0816,1.0805,1.0798,1.0788,1.0873,1.0873,1.0873,1.0971,1.0962,1.0974,1.0952,1.0937,1.0924,1.0932,1.0927,1.0896,1.0876,1.0845,1.0842,1.0815,1.0807,1.0786,1.0775,1.0755,0,0]}]]